Location: Derby
(52.9213°N, 1.4761°W)
Time: 16:05:28
(UTC+01:00)

Vanguard 1 - Pass Details

Date: 28 May 2025
Orbit: 649 x 3822 km, 34.3° (Epoch: 14 June)

Event Time Altitude Azimuth Distance (km) Brightness Sun altitude
Rises 18:28:11 0° 252° (WSW) 7,873 15.8 22.3°
Reaches altitude 10° 18:34:26 10° 246° (WSW) 6,627 15.4 21.3°
Maximum altitude 18:51:39 37° 189° (S) 3,649 13.1 18.8°
Drops below altitude 10° 19:02:33 10° 128° (SE) 4,246 12.8 17.2°
Sets 19:05:34 0° 119° (ESE) 4,875 13.0 16.7°
